Data supplied by UK-AIR on 20/9/2009
All Data GMT hour ending 
Status: R =Ratified P=Provisional,P*=As supplied
,,Manchester South,,,,,,,,,,,,,,,,,,,,,,,
Date,time,"Nitric oxide",status,unit,"Nitrogen dioxide",status,unit,"Nitrogen oxides as nitrogen dioxide",status,unit,"Ozone",status,unit,"Sulphur dioxide",status,unit
 
01-01-2001,01:00,,,,,,,,,,,,,,,
01-01-2001,02:00,0,R,ugm-3,6,R,ugm-3,6,R,ugm-3,34,R,ugm-3,11,R,ugm-3
01-01-2001,03:00,0,R,ugm-3,2,R,ugm-3,2,R,ugm-3,38,R,ugm-3,11,R,ugm-3
01-01-2001,04:00,0,R,ugm-3,4,R,ugm-3,4,R,ugm-3,40,R,ugm-3,13,R,ugm-3
01-01-2001,05:00,0,R,ugm-3,6,R,ugm-3,6,R,ugm-3,44,R,ugm-3,8,R,ugm-3
01-01-2001,06:00,0,R,ugm-3,6,R,ugm-3,6,R,ugm-3,40,R,ugm-3,8,R,ugm-3
01-01-2001,07:00,0,R,ugm-3,8,R,ugm-3,8,R,ugm-3,44,R,ugm-3,11,R,ugm-3
01-01-2001,08:00,0,R,ugm-3,10,R,ugm-3,10,R,ugm-3,36,R,ugm-3,8,R,ugm-3
01-01-2001,09:00,1,R,ugm-3,10,R,ugm-3,11,R,ugm-3,36,R,ugm-3,8,R,ugm-3
01-01-2001,10:00,0,R,ugm-3,10,R,ugm-3,10,R,ugm-3,42,R,ugm-3,5,R,ugm-3
01-01-2001,11:00,1,R,ugm-3,10,R,ugm-3,11,R,ugm-3,48,R,ugm-3,11,R,ugm-3
01-01-2001,12:00,1,R,ugm-3,8,R,ugm-3,10,R,ugm-3,46,R,ugm-3,13,R,ugm-3
01-01-2001,13:00,1,R,ugm-3,10,R,ugm-3,11,R,ugm-3,32,R,ugm-3,8,R,ugm-3
01-01-2001,14:00,1,R,ugm-3,10,R,ugm-3,11,R,ugm-3,36,R,ugm-3,8,R,ugm-3
01-01-2001,15:00,1,R,ugm-3,10,R,ugm-3,11,R,ugm-3,38,R,ugm-3,11,R,ugm-3
01-01-2001,16:00,1,R,ugm-3,10,R,ugm-3,11,R,ugm-3,44,R,ugm-3,11,R,ugm-3
01-01-2001,17:00,1,R,ugm-3,11,R,ugm-3,13,R,ugm-3,48,R,ugm-3,8,R,ugm-3
01-01-2001,18:00,1,R,ugm-3,11,R,ugm-3,13,R,ugm-3,42,R,ugm-3,5,R,ugm-3
01-01-2001,19:00,1,R,ugm-3,10,R,ugm-3,11,R,ugm-3,36,R,ugm-3,5,R,ugm-3
01-01-2001,20:00,1,R,ugm-3,8,R,ugm-3,10,R,ugm-3,36,R,ugm-3,8,R,ugm-3
01-01-2001,21:00,1,R,ugm-3,8,R,ugm-3,10,R,ugm-3,40,R,ugm-3,5,R,ugm-3
01-01-2001,22:00,1,R,ugm-3,8,R,ugm-3,10,R,ugm-3,42,R,ugm-3,11,R,ugm-3
01-01-2001,23:00,1,R,ugm-3,8,R,ugm-3,10,R,ugm-3,46,R,ugm-3,13,R,ugm-3
01-01-2001,24:00,1,R,ugm-3,8,R,ugm-3,10,R,ugm-3,50,R,ugm-3,11,R,ugm-3
02-01-2001,01:00,1,R,ugm-3,8,R,ugm-3,10,R,ugm-3,46,R,ugm-3,11,R,ugm-3
02-01-2001,02:00,1,R,ugm-3,8,R,ugm-3,10,R,ugm-3,48,R,ugm-3,11,R,ugm-3
02-01-2001,03:00,1,R,ugm-3,8,R,ugm-3,10,R,ugm-3,54,R,ugm-3,11,R,ugm-3
02-01-2001,04:00,1,R,ugm-3,8,R,ugm-3,10,R,ugm-3,58,R,ugm-3,16,R,ugm-3
02-01-2001,05:00,3,R,ugm-3,8,R,ugm-3,11,R,ugm-3,56,R,ugm-3,16,R,ugm-3
02-01-2001,06:00,1,R,ugm-3,8,R,ugm-3,10,R,ugm-3,54,R,ugm-3,11,R,ugm-3
02-01-2001,07:00,1,R,ugm-3,8,R,ugm-3,10,R,ugm-3,50,R,ugm-3,11,R,ugm-3
02-01-2001,08:00,3,R,ugm-3,10,R,ugm-3,13,R,ugm-3,46,R,ugm-3,11,R,ugm-3
02-01-2001,09:00,1,R,ugm-3,13,R,ugm-3,15,R,ugm-3,42,R,ugm-3,13,R,ugm-3
02-01-2001,10:00,3,R,ugm-3,13,R,ugm-3,17,R,ugm-3,42,R,ugm-3,11,R,ugm-3
02-01-2001,11:00,5,R,ugm-3,15,R,ugm-3,23,R,ugm-3,38,R,ugm-3,19,R,ugm-3
02-01-2001,12:00,16,R,ugm-3,42,R,ugm-3,67,R,ugm-3,12,R,ugm-3,19,R,ugm-3
02-01-2001,13:00,24,R,ugm-3,48,R,ugm-3,84,R,ugm-3,6,R,ugm-3,13,R,ugm-3
02-01-2001,14:00,,,,,,,,,,,,,,,
02-01-2001,15:00,33,R,ugm-3,53,R,ugm-3,103,R,ugm-3,4,R,ugm-3,11,R,ugm-3
02-01-2001,16:00,30,R,ugm-3,55,R,ugm-3,101,R,ugm-3,0,R,ugm-3,11,R,ugm-3
02-01-2001,17:00,9,R,ugm-3,48,R,ugm-3,61,R,ugm-3,10,R,ugm-3,8,R,ugm-3
02-01-2001,18:00,4,R,ugm-3,44,R,ugm-3,50,R,ugm-3,16,R,ugm-3,5,R,ugm-3
02-01-2001,19:00,3,R,ugm-3,31,R,ugm-3,34,R,ugm-3,28,R,ugm-3,8,R,ugm-3
02-01-2001,20:00,,,,,,,,,,42,R,ugm-3,5,R,ugm-3
02-01-2001,21:00,,,,,,,,,,32,R,ugm-3,8,R,ugm-3
02-01-2001,22:00,,,,,,,,,,34,R,ugm-3,8,R,ugm-3
02-01-2001,23:00,,,,,,,,,,38,R,ugm-3,8,R,ugm-3
02-01-2001,24:00,,,,,,,,,,30,R,ugm-3,8,R,ugm-3
03-01-2001,01:00,,,,,,,,,,22,R,ugm-3,11,R,ugm-3
03-01-2001,02:00,,,,,,,,,,28,R,ugm-3,13,R,ugm-3
03-01-2001,03:00,,,,,,,,,,36,R,ugm-3,13,R,ugm-3
03-01-2001,04:00,,,,,,,,,,38,R,ugm-3,8,R,ugm-3
03-01-2001,05:00,,,,,,,,,,38,R,ugm-3,8,R,ugm-3
03-01-2001,06:00,,,,,,,,,,38,R,ugm-3,5,R,ugm-3
03-01-2001,07:00,,,,,,,,,,32,R,ugm-3,8,R,ugm-3
03-01-2001,08:00,,,,,,,,,,26,R,ugm-3,11,R,ugm-3
03-01-2001,09:00,,,,,,,,,,20,R,ugm-3,8,R,ugm-3
03-01-2001,10:00,,,,,,,,,,22,R,ugm-3,8,R,ugm-3
03-01-2001,11:00,,,,,,,,,,26,R,ugm-3,8,R,ugm-3
03-01-2001,12:00,,,,,,,,,,26,R,ugm-3,8,R,ugm-3
03-01-2001,13:00,,,,,,,,,,24,R,ugm-3,5,R,ugm-3
03-01-2001,14:00,,,,,,,,,,22,R,ugm-3,11,R,ugm-3
03-01-2001,15:00,,,,,,,,,,18,R,ugm-3,13,R,ugm-3
03-01-2001,16:00,,,,,,,,,,20,R,ugm-3,8,R,ugm-3
03-01-2001,17:00,,,,,,,,,,20,R,ugm-3,5,R,ugm-3
03-01-2001,18:00,,,,,,,,,,20,R,ugm-3,5,R,ugm-3
03-01-2001,19:00,,,,,,,,,,22,R,ugm-3,5,R,ugm-3
03-01-2001,20:00,,,,,,,,,,24,R,ugm-3,11,R,ugm-3
03-01-2001,21:00,,,,,,,,,,22,R,ugm-3,8,R,ugm-3
03-01-2001,22:00,,,,,,,,,,24,R,ugm-3,5,R,ugm-3
03-01-2001,23:00,,,,,,,,,,28,R,ugm-3,8,R,ugm-3
03-01-2001,24:00,,,,,,,,,,24,R,ugm-3,8,R,ugm-3
04-01-2001,01:00,,,,,,,,,,24,R,ugm-3,11,R,ugm-3
04-01-2001,02:00,,,,,,,,,,30,R,ugm-3,8,R,ugm-3
04-01-2001,03:00,,,,,,,,,,26,R,ugm-3,11,R,ugm-3
04-01-2001,04:00,,,,,,,,,,24,R,ugm-3,11,R,ugm-3
04-01-2001,05:00,,,,,,,,,,24,R,ugm-3,16,R,ugm-3
04-01-2001,06:00,,,,,,,,,,26,R,ugm-3,11,R,ugm-3
04-01-2001,07:00,,,,,,,,,,26,R,ugm-3,8,R,ugm-3
04-01-2001,08:00,,,,,,,,,,22,R,ugm-3,8,R,ugm-3
04-01-2001,09:00,,,,,,,,,,20,R,ugm-3,5,R,ugm-3
04-01-2001,10:00,,,,,,,,,,14,R,ugm-3,5,R,ugm-3
04-01-2001,11:00,,,,,,,,,,18,R,ugm-3,8,R,ugm-3
04-01-2001,12:00,,,,,,,,,,10,R,ugm-3,8,R,ugm-3
04-01-2001,13:00,,,,,,,,,,16,R,ugm-3,11,R,ugm-3
04-01-2001,14:00,6,R,ugm-3,15,R,ugm-3,25,R,ugm-3,22,R,ugm-3,5,R,ugm-3
04-01-2001,15:00,6,R,ugm-3,13,R,ugm-3,23,R,ugm-3,30,R,ugm-3,8,R,ugm-3
04-01-2001,16:00,9,R,ugm-3,17,R,ugm-3,31,R,ugm-3,26,R,ugm-3,8,R,ugm-3
04-01-2001,17:00,9,R,ugm-3,27,R,ugm-3,40,R,ugm-3,20,R,ugm-3,8,R,ugm-3
04-01-2001,18:00,19,R,ugm-3,34,R,ugm-3,63,R,ugm-3,10,R,ugm-3,19,R,ugm-3
04-01-2001,19:00,20,R,ugm-3,34,R,ugm-3,65,R,ugm-3,14,R,ugm-3,11,R,ugm-3
04-01-2001,20:00,14,R,ugm-3,32,R,ugm-3,53,R,ugm-3,12,R,ugm-3,11,R,ugm-3
04-01-2001,21:00,6,R,ugm-3,25,R,ugm-3,34,R,ugm-3,12,R,ugm-3,8,R,ugm-3
04-01-2001,22:00,8,R,ugm-3,25,R,ugm-3,36,R,ugm-3,14,R,ugm-3,11,R,ugm-3
04-01-2001,23:00,5,R,ugm-3,15,R,ugm-3,23,R,ugm-3,24,R,ugm-3,8,R,ugm-3
04-01-2001,24:00,3,R,ugm-3,8,R,ugm-3,11,R,ugm-3,36,R,ugm-3,8,R,ugm-3
05-01-2001,01:00,1,R,ugm-3,6,R,ugm-3,8,R,ugm-3,32,R,ugm-3,11,R,ugm-3
05-01-2001,02:00,5,R,ugm-3,8,R,ugm-3,15,R,ugm-3,36,R,ugm-3,13,R,ugm-3
05-01-2001,03:00,8,R,ugm-3,13,R,ugm-3,25,R,ugm-3,24,R,ugm-3,8,R,ugm-3
05-01-2001,04:00,14,R,ugm-3,17,R,ugm-3,38,R,ugm-3,14,R,ugm-3,13,R,ugm-3
05-01-2001,05:00,11,R,ugm-3,15,R,ugm-3,32,R,ugm-3,14,R,ugm-3,13,R,ugm-3
05-01-2001,06:00,28,R,ugm-3,19,R,ugm-3,61,R,ugm-3,10,R,ugm-3,11,R,ugm-3
05-01-2001,07:00,29,R,ugm-3,29,R,ugm-3,73,R,ugm-3,6,R,ugm-3,13,R,ugm-3
05-01-2001,08:00,96,R,ugm-3,42,R,ugm-3,189,R,ugm-3,6,R,ugm-3,13,R,ugm-3
05-01-2001,09:00,148,R,ugm-3,57,R,ugm-3,283,R,ugm-3,4,R,ugm-3,13,R,ugm-3
05-01-2001,10:00,235,R,ugm-3,69,R,ugm-3,428,R,ugm-3,4,R,ugm-3,19,R,ugm-3
05-01-2001,11:00,286,R,ugm-3,82,R,ugm-3,520,R,ugm-3,4,R,ugm-3,21,R,ugm-3
05-01-2001,12:00,213,R,ugm-3,78,R,ugm-3,403,R,ugm-3,4,R,ugm-3,21,R,ugm-3
05-01-2001,13:00,145,R,ugm-3,71,R,ugm-3,292,R,ugm-3,4,R,ugm-3,21,R,ugm-3
05-01-2001,14:00,134,R,ugm-3,74,R,ugm-3,279,R,ugm-3,6,R,ugm-3,24,R,ugm-3
05-01-2001,15:00,50,R,ugm-3,52,R,ugm-3,128,R,ugm-3,10,R,ugm-3,19,R,ugm-3
05-01-2001,16:00,64,R,ugm-3,61,R,ugm-3,159,R,ugm-3,6,R,ugm-3,19,R,ugm-3
05-01-2001,17:00,71,R,ugm-3,48,R,ugm-3,157,R,ugm-3,4,R,ugm-3,11,R,ugm-3
05-01-2001,18:00,75,R,ugm-3,57,R,ugm-3,172,R,ugm-3,8,R,ugm-3,11,R,ugm-3
05-01-2001,19:00,101,R,ugm-3,59,R,ugm-3,214,R,ugm-3,6,R,ugm-3,13,R,ugm-3
05-01-2001,20:00,100,R,ugm-3,55,R,ugm-3,208,R,ugm-3,6,R,ugm-3,11,R,ugm-3
05-01-2001,21:00,83,R,ugm-3,52,R,ugm-3,178,R,ugm-3,6,R,ugm-3,11,R,ugm-3
05-01-2001,22:00,61,R,ugm-3,46,R,ugm-3,139,R,ugm-3,8,R,ugm-3,11,R,ugm-3
05-01-2001,23:00,45,R,ugm-3,40,R,ugm-3,109,R,ugm-3,8,R,ugm-3,13,R,ugm-3
05-01-2001,24:00,39,R,ugm-3,36,R,ugm-3,96,R,ugm-3,8,R,ugm-3,16,R,ugm-3
06-01-2001,01:00,14,R,ugm-3,34,R,ugm-3,55,R,ugm-3,12,R,ugm-3,13,R,ugm-3
06-01-2001,02:00,6,R,ugm-3,11,R,ugm-3,21,R,ugm-3,44,R,ugm-3,13,R,ugm-3
06-01-2001,03:00,5,R,ugm-3,11,R,ugm-3,19,R,ugm-3,44,R,ugm-3,13,R,ugm-3
06-01-2001,04:00,6,R,ugm-3,11,R,ugm-3,21,R,ugm-3,28,R,ugm-3,13,R,ugm-3
06-01-2001,05:00,5,R,ugm-3,8,R,ugm-3,15,R,ugm-3,40,R,ugm-3,11,R,ugm-3
06-01-2001,06:00,6,R,ugm-3,4,R,ugm-3,13,R,ugm-3,52,R,ugm-3,8,R,ugm-3
06-01-2001,07:00,5,R,ugm-3,4,R,ugm-3,11,R,ugm-3,48,R,ugm-3,11,R,ugm-3
06-01-2001,08:00,5,R,ugm-3,6,R,ugm-3,13,R,ugm-3,52,R,ugm-3,5,R,ugm-3
06-01-2001,09:00,5,R,ugm-3,6,R,ugm-3,13,R,ugm-3,44,R,ugm-3,5,R,ugm-3
06-01-2001,10:00,5,R,ugm-3,6,R,ugm-3,13,R,ugm-3,36,R,ugm-3,8,R,ugm-3
06-01-2001,11:00,6,R,ugm-3,6,R,ugm-3,15,R,ugm-3,36,R,ugm-3,11,R,ugm-3
06-01-2001,12:00,6,R,ugm-3,6,R,ugm-3,15,R,ugm-3,46,R,ugm-3,8,R,ugm-3
06-01-2001,13:00,6,R,ugm-3,4,R,ugm-3,13,R,ugm-3,50,R,ugm-3,8,R,ugm-3
06-01-2001,14:00,13,R,ugm-3,17,R,ugm-3,36,R,ugm-3,44,R,ugm-3,8,R,ugm-3
06-01-2001,15:00,13,R,ugm-3,19,R,ugm-3,38,R,ugm-3,44,R,ugm-3,8,R,ugm-3
06-01-2001,16:00,9,R,ugm-3,11,R,ugm-3,25,R,ugm-3,48,R,ugm-3,5,R,ugm-3
06-01-2001,17:00,6,R,ugm-3,6,R,ugm-3,15,R,ugm-3,58,R,ugm-3,5,R,ugm-3
06-01-2001,18:00,5,R,ugm-3,6,R,ugm-3,13,R,ugm-3,56,R,ugm-3,5,R,ugm-3
06-01-2001,19:00,6,R,ugm-3,6,R,ugm-3,15,R,ugm-3,58,R,ugm-3,5,R,ugm-3
06-01-2001,20:00,6,R,ugm-3,8,R,ugm-3,17,R,ugm-3,54,R,ugm-3,5,R,ugm-3
06-01-2001,21:00,5,R,ugm-3,6,R,ugm-3,13,R,ugm-3,54,R,ugm-3,5,R,ugm-3
06-01-2001,22:00,5,R,ugm-3,6,R,ugm-3,13,R,ugm-3,52,R,ugm-3,5,R,ugm-3
06-01-2001,23:00,5,R,ugm-3,2,R,ugm-3,10,R,ugm-3,52,R,ugm-3,8,R,ugm-3
06-01-2001,24:00,6,R,ugm-3,4,R,ugm-3,13,R,ugm-3,56,R,ugm-3,8,R,ugm-3
07-01-2001,01:00,5,R,ugm-3,4,R,ugm-3,11,R,ugm-3,58,R,ugm-3,11,R,ugm-3
07-01-2001,02:00,6,R,ugm-3,2,R,ugm-3,11,R,ugm-3,54,R,ugm-3,11,R,ugm-3
07-01-2001,03:00,5,R,ugm-3,4,R,ugm-3,11,R,ugm-3,56,R,ugm-3,8,R,ugm-3
07-01-2001,04:00,5,R,ugm-3,4,R,ugm-3,11,R,ugm-3,56,R,ugm-3,11,R,ugm-3
07-01-2001,05:00,6,R,ugm-3,10,R,ugm-3,19,R,ugm-3,56,R,ugm-3,8,R,ugm-3
07-01-2001,06:00,6,R,ugm-3,10,R,ugm-3,19,R,ugm-3,54,R,ugm-3,8,R,ugm-3
07-01-2001,07:00,8,R,ugm-3,15,R,ugm-3,27,R,ugm-3,48,R,ugm-3,8,R,ugm-3
07-01-2001,08:00,10,R,ugm-3,21,R,ugm-3,36,R,ugm-3,36,R,ugm-3,13,R,ugm-3
07-01-2001,09:00,10,R,ugm-3,21,R,ugm-3,36,R,ugm-3,40,R,ugm-3,16,R,ugm-3
07-01-2001,10:00,8,R,ugm-3,13,R,ugm-3,25,R,ugm-3,52,R,ugm-3,11,R,ugm-3
07-01-2001,11:00,6,R,ugm-3,8,R,ugm-3,17,R,ugm-3,60,R,ugm-3,8,R,ugm-3
07-01-2001,12:00,8,R,ugm-3,13,R,ugm-3,25,R,ugm-3,56,R,ugm-3,8,R,ugm-3
07-01-2001,13:00,8,R,ugm-3,11,R,ugm-3,23,R,ugm-3,56,R,ugm-3,8,R,ugm-3
07-01-2001,14:00,9,R,ugm-3,13,R,ugm-3,27,R,ugm-3,54,R,ugm-3,13,R,ugm-3
07-01-2001,15:00,8,R,ugm-3,10,R,ugm-3,21,R,ugm-3,60,R,ugm-3,13,R,ugm-3
07-01-2001,16:00,10,R,ugm-3,10,R,ugm-3,25,R,ugm-3,64,R,ugm-3,8,R,ugm-3
07-01-2001,17:00,8,R,ugm-3,11,R,ugm-3,23,R,ugm-3,56,R,ugm-3,3,R,ugm-3
07-01-2001,18:00,24,R,ugm-3,23,R,ugm-3,59,R,ugm-3,40,R,ugm-3,3,R,ugm-3
07-01-2001,19:00,8,R,ugm-3,13,R,ugm-3,25,R,ugm-3,56,R,ugm-3,5,R,ugm-3
07-01-2001,20:00,10,R,ugm-3,15,R,ugm-3,31,R,ugm-3,64,R,ugm-3,8,R,ugm-3
07-01-2001,21:00,9,R,ugm-3,11,R,ugm-3,25,R,ugm-3,68,R,ugm-3,8,R,ugm-3
07-01-2001,22:00,5,R,ugm-3,10,R,ugm-3,17,R,ugm-3,62,R,ugm-3,8,R,ugm-3
07-01-2001,23:00,6,R,ugm-3,13,R,ugm-3,23,R,ugm-3,46,R,ugm-3,8,R,ugm-3
07-01-2001,24:00,13,R,ugm-3,25,R,ugm-3,44,R,ugm-3,26,R,ugm-3,11,R,ugm-3
08-01-2001,01:00,6,R,ugm-3,13,R,ugm-3,23,R,ugm-3,38,R,ugm-3,8,R,ugm-3
08-01-2001,02:00,8,R,ugm-3,10,R,ugm-3,21,R,ugm-3,44,R,ugm-3,11,R,ugm-3
08-01-2001,03:00,8,R,ugm-3,6,R,ugm-3,17,R,ugm-3,46,R,ugm-3,11,R,ugm-3
08-01-2001,04:00,8,R,ugm-3,8,R,ugm-3,19,R,ugm-3,42,R,ugm-3,11,R,ugm-3
08-01-2001,05:00,8,R,ugm-3,8,R,ugm-3,19,R,ugm-3,44,R,ugm-3,11,R,ugm-3
08-01-2001,06:00,8,R,ugm-3,13,R,ugm-3,25,R,ugm-3,34,R,ugm-3,11,R,ugm-3
08-01-2001,07:00,8,R,ugm-3,13,R,ugm-3,25,R,ugm-3,38,R,ugm-3,5,R,ugm-3
08-01-2001,08:00,9,R,ugm-3,13,R,ugm-3,27,R,ugm-3,36,R,ugm-3,5,R,ugm-3
08-01-2001,09:00,9,R,ugm-3,21,R,ugm-3,34,R,ugm-3,28,R,ugm-3,3,R,ugm-3
08-01-2001,10:00,10,R,ugm-3,21,R,ugm-3,36,R,ugm-3,30,R,ugm-3,5,R,ugm-3
08-01-2001,11:00,10,R,ugm-3,15,R,ugm-3,31,R,ugm-3,38,R,ugm-3,5,R,ugm-3
08-01-2001,12:00,10,R,ugm-3,11,R,ugm-3,27,R,ugm-3,44,R,ugm-3,5,R,ugm-3
08-01-2001,13:00,9,R,ugm-3,13,R,ugm-3,27,R,ugm-3,40,R,ugm-3,5,R,ugm-3
08-01-2001,14:00,8,R,ugm-3,15,R,ugm-3,27,R,ugm-3,40,R,ugm-3,5,R,ugm-3
08-01-2001,15:00,11,R,ugm-3,23,R,ugm-3,40,R,ugm-3,32,R,ugm-3,3,R,ugm-3
08-01-2001,16:00,15,R,ugm-3,34,R,ugm-3,57,R,ugm-3,18,R,ugm-3,8,R,ugm-3
08-01-2001,17:00,18,R,ugm-3,42,R,ugm-3,69,R,ugm-3,14,R,ugm-3,3,R,ugm-3
08-01-2001,18:00,16,R,ugm-3,44,R,ugm-3,69,R,ugm-3,16,R,ugm-3,5,R,ugm-3
08-01-2001,19:00,24,R,ugm-3,50,R,ugm-3,86,R,ugm-3,10,R,ugm-3,3,R,ugm-3
08-01-2001,20:00,13,R,ugm-3,38,R,ugm-3,57,R,ugm-3,22,R,ugm-3,8,R,ugm-3
08-01-2001,21:00,11,R,ugm-3,34,R,ugm-3,52,R,ugm-3,24,R,ugm-3,8,R,ugm-3
08-01-2001,22:00,11,R,ugm-3,32,R,ugm-3,50,R,ugm-3,18,R,ugm-3,8,R,ugm-3
08-01-2001,23:00,9,R,ugm-3,25,R,ugm-3,38,R,ugm-3,22,R,ugm-3,8,R,ugm-3
08-01-2001,24:00,9,R,ugm-3,23,R,ugm-3,36,R,ugm-3,24,R,ugm-3,11,R,ugm-3
09-01-2001,01:00,9,R,ugm-3,19,R,ugm-3,32,R,ugm-3,20,R,ugm-3,13,R,ugm-3
09-01-2001,02:00,8,R,ugm-3,13,R,ugm-3,25,R,ugm-3,28,R,ugm-3,11,R,ugm-3
09-01-2001,03:00,9,R,ugm-3,15,R,ugm-3,29,R,ugm-3,22,R,ugm-3,11,R,ugm-3
09-01-2001,04:00,13,R,ugm-3,19,R,ugm-3,38,R,ugm-3,14,R,ugm-3,8,R,ugm-3
09-01-2001,05:00,16,R,ugm-3,19,R,ugm-3,44,R,ugm-3,14,R,ugm-3,11,R,ugm-3
09-01-2001,06:00,23,R,ugm-3,19,R,ugm-3,53,R,ugm-3,14,R,ugm-3,11,R,ugm-3
09-01-2001,07:00,64,R,ugm-3,31,R,ugm-3,128,R,ugm-3,6,R,ugm-3,8,R,ugm-3
09-01-2001,08:00,143,R,ugm-3,50,R,ugm-3,267,R,ugm-3,4,R,ugm-3,8,R,ugm-3
09-01-2001,09:00,270,R,ugm-3,73,R,ugm-3,485,R,ugm-3,6,R,ugm-3,8,R,ugm-3
09-01-2001,10:00,339,R,ugm-3,84,R,ugm-3,602,R,ugm-3,6,R,ugm-3,13,R,ugm-3
09-01-2001,11:00,283,R,ugm-3,86,R,ugm-3,518,R,ugm-3,4,R,ugm-3,21,R,ugm-3
09-01-2001,12:00,179,R,ugm-3,73,R,ugm-3,346,R,ugm-3,4,R,ugm-3,21,R,ugm-3
09-01-2001,13:00,109,R,ugm-3,69,R,ugm-3,235,R,ugm-3,4,R,ugm-3,21,R,ugm-3
09-01-2001,14:00,90,R,ugm-3,59,R,ugm-3,197,R,ugm-3,4,R,ugm-3,19,R,ugm-3
09-01-2001,15:00,95,R,ugm-3,63,R,ugm-3,208,R,ugm-3,4,R,ugm-3,21,R,ugm-3
09-01-2001,16:00,120,R,ugm-3,71,R,ugm-3,254,R,ugm-3,4,R,ugm-3,19,R,ugm-3
09-01-2001,17:00,148,R,ugm-3,74,R,ugm-3,300,R,ugm-3,4,R,ugm-3,19,R,ugm-3
09-01-2001,18:00,270,R,ugm-3,88,R,ugm-3,500,R,ugm-3,6,R,ugm-3,21,R,ugm-3
09-01-2001,19:00,175,R,ugm-3,73,R,ugm-3,340,R,ugm-3,4,R,ugm-3,19,R,ugm-3
09-01-2001,20:00,175,R,ugm-3,73,R,ugm-3,340,R,ugm-3,4,R,ugm-3,16,R,ugm-3
09-01-2001,21:00,298,R,ugm-3,78,R,ugm-3,533,R,ugm-3,6,R,ugm-3,16,R,ugm-3
09-01-2001,22:00,251,R,ugm-3,76,R,ugm-3,460,R,ugm-3,4,R,ugm-3,16,R,ugm-3
09-01-2001,23:00,270,R,ugm-3,78,R,ugm-3,491,R,ugm-3,4,R,ugm-3,19,R,ugm-3
09-01-2001,24:00,128,R,ugm-3,63,R,ugm-3,258,R,ugm-3,2,R,ugm-3,16,R,ugm-3
10-01-2001,01:00,105,R,ugm-3,53,R,ugm-3,214,R,ugm-3,2,R,ugm-3,13,R,ugm-3
10-01-2001,02:00,28,R,ugm-3,34,R,ugm-3,76,R,ugm-3,4,R,ugm-3,11,R,ugm-3
10-01-2001,03:00,10,R,ugm-3,23,R,ugm-3,38,R,ugm-3,8,R,ugm-3,11,R,ugm-3
10-01-2001,04:00,9,R,ugm-3,21,R,ugm-3,34,R,ugm-3,10,R,ugm-3,8,R,ugm-3
10-01-2001,05:00,8,R,ugm-3,11,R,ugm-3,23,R,ugm-3,22,R,ugm-3,11,R,ugm-3
10-01-2001,06:00,8,R,ugm-3,11,R,ugm-3,23,R,ugm-3,22,R,ugm-3,11,R,ugm-3
10-01-2001,07:00,11,R,ugm-3,17,R,ugm-3,34,R,ugm-3,14,R,ugm-3,5,R,ugm-3
10-01-2001,08:00,15,R,ugm-3,21,R,ugm-3,44,R,ugm-3,12,R,ugm-3,8,R,ugm-3
10-01-2001,09:00,19,R,ugm-3,25,R,ugm-3,53,R,ugm-3,8,R,ugm-3,11,R,ugm-3
10-01-2001,10:00,24,R,ugm-3,31,R,ugm-3,67,R,ugm-3,8,R,ugm-3,16,R,ugm-3
10-01-2001,11:00,14,R,ugm-3,25,R,ugm-3,46,R,ugm-3,16,R,ugm-3,11,R,ugm-3
10-01-2001,12:00,11,R,ugm-3,19,R,ugm-3,36,R,ugm-3,20,R,ugm-3,13,R,ugm-3
10-01-2001,13:00,11,R,ugm-3,15,R,ugm-3,32,R,ugm-3,22,R,ugm-3,21,R,ugm-3
10-01-2001,14:00,9,R,ugm-3,17,R,ugm-3,31,R,ugm-3,24,R,ugm-3,27,R,ugm-3
10-01-2001,15:00,9,R,ugm-3,13,R,ugm-3,27,R,ugm-3,24,R,ugm-3,21,R,ugm-3
10-01-2001,16:00,8,R,ugm-3,11,R,ugm-3,23,R,ugm-3,22,R,ugm-3,11,R,ugm-3
10-01-2001,17:00,8,R,ugm-3,13,R,ugm-3,25,R,ugm-3,22,R,ugm-3,8,R,ugm-3
10-01-2001,18:00,6,R,ugm-3,13,R,ugm-3,23,R,ugm-3,22,R,ugm-3,3,R,ugm-3
10-01-2001,19:00,8,R,ugm-3,19,R,ugm-3,31,R,ugm-3,16,R,ugm-3,5,R,ugm-3
10-01-2001,20:00,5,R,ugm-3,11,R,ugm-3,19,R,ugm-3,18,R,ugm-3,5,R,ugm-3
10-01-2001,21:00,4,R,ugm-3,6,R,ugm-3,11,R,ugm-3,24,R,ugm-3,5,R,ugm-3
10-01-2001,22:00,3,R,ugm-3,8,R,ugm-3,11,R,ugm-3,28,R,ugm-3,8,R,ugm-3
10-01-2001,23:00,5,R,ugm-3,6,R,ugm-3,13,R,ugm-3,28,R,ugm-3,8,R,ugm-3
10-01-2001,24:00,4,R,ugm-3,6,R,ugm-3,11,R,ugm-3,30,R,ugm-3,24,R,ugm-3
11-01-2001,01:00,5,R,ugm-3,6,R,ugm-3,13,R,ugm-3,32,R,ugm-3,19,R,ugm-3
11-01-2001,02:00,4,R,ugm-3,4,R,ugm-3,10,R,ugm-3,34,R,ugm-3,13,R,ugm-3
11-01-2001,03:00,5,R,ugm-3,2,R,ugm-3,10,R,ugm-3,30,R,ugm-3,11,R,ugm-3
11-01-2001,04:00,4,R,ugm-3,2,R,ugm-3,8,R,ugm-3,34,R,ugm-3,13,R,ugm-3
11-01-2001,05:00,5,R,ugm-3,2,R,ugm-3,10,R,ugm-3,32,R,ugm-3,11,R,ugm-3
11-01-2001,06:00,5,R,ugm-3,2,R,ugm-3,10,R,ugm-3,32,R,ugm-3,11,R,ugm-3
11-01-2001,07:00,3,R,ugm-3,4,R,ugm-3,8,R,ugm-3,30,R,ugm-3,8,R,ugm-3
11-01-2001,08:00,3,R,ugm-3,4,R,ugm-3,8,R,ugm-3,24,R,ugm-3,5,R,ugm-3
11-01-2001,09:00,4,R,ugm-3,6,R,ugm-3,11,R,ugm-3,24,R,ugm-3,11,R,ugm-3
11-01-2001,10:00,1,R,ugm-3,10,R,ugm-3,11,R,ugm-3,22,R,ugm-3,8,R,ugm-3
11-01-2001,11:00,3,R,ugm-3,8,R,ugm-3,11,R,ugm-3,22,R,ugm-3,5,R,ugm-3
11-01-2001,12:00,3,R,ugm-3,6,R,ugm-3,10,R,ugm-3,24,R,ugm-3,5,R,ugm-3
11-01-2001,13:00,3,R,ugm-3,4,R,ugm-3,8,R,ugm-3,30,R,ugm-3,8,R,ugm-3
11-01-2001,14:00,4,R,ugm-3,4,R,ugm-3,10,R,ugm-3,30,R,ugm-3,11,R,ugm-3
11-01-2001,15:00,3,R,ugm-3,4,R,ugm-3,8,R,ugm-3,30,R,ugm-3,11,R,ugm-3
11-01-2001,16:00,4,R,ugm-3,6,R,ugm-3,11,R,ugm-3,28,R,ugm-3,5,R,ugm-3
11-01-2001,17:00,4,R,ugm-3,10,R,ugm-3,15,R,ugm-3,28,R,ugm-3,5,R,ugm-3
11-01-2001,18:00,5,R,ugm-3,10,R,ugm-3,17,R,ugm-3,30,R,ugm-3,8,R,ugm-3
11-01-2001,19:00,5,R,ugm-3,6,R,ugm-3,13,R,ugm-3,34,R,ugm-3,5,R,ugm-3
11-01-2001,20:00,3,R,ugm-3,6,R,ugm-3,10,R,ugm-3,36,R,ugm-3,5,R,ugm-3
11-01-2001,21:00,4,R,ugm-3,8,R,ugm-3,13,R,ugm-3,32,R,ugm-3,5,R,ugm-3
11-01-2001,22:00,3,R,ugm-3,8,R,ugm-3,11,R,ugm-3,32,R,ugm-3,8,R,ugm-3
11-01-2001,23:00,3,R,ugm-3,4,R,ugm-3,8,R,ugm-3,42,R,ugm-3,8,R,ugm-3
11-01-2001,24:00,4,R,ugm-3,2,R,ugm-3,8,R,ugm-3,46,R,ugm-3,8,R,ugm-3
12-01-2001,01:00,3,R,ugm-3,4,R,ugm-3,8,R,ugm-3,46,R,ugm-3,8,R,ugm-3
12-01-2001,02:00,4,R,ugm-3,6,R,ugm-3,11,R,ugm-3,50,R,ugm-3,8,R,ugm-3
12-01-2001,03:00,3,R,ugm-3,4,R,ugm-3,8,R,ugm-3,52,R,ugm-3,8,R,ugm-3
12-01-2001,04:00,4,R,ugm-3,4,R,ugm-3,10,R,ugm-3,50,R,ugm-3,8,R,ugm-3
12-01-2001,05:00,4,R,ugm-3,6,R,ugm-3,11,R,ugm-3,48,R,ugm-3,8,R,ugm-3
12-01-2001,06:00,4,R,ugm-3,6,R,ugm-3,11,R,ugm-3,42,R,ugm-3,5,R,ugm-3
12-01-2001,07:00,3,R,ugm-3,8,R,ugm-3,11,R,ugm-3,44,R,ugm-3,8,R,ugm-3
12-01-2001,08:00,4,R,ugm-3,15,R,ugm-3,21,R,ugm-3,40,R,ugm-3,5,R,ugm-3
12-01-2001,09:00,5,R,ugm-3,19,R,ugm-3,27,R,ugm-3,38,R,ugm-3,8,R,ugm-3
12-01-2001,10:00,6,R,ugm-3,15,R,ugm-3,25,R,ugm-3,40,R,ugm-3,5,R,ugm-3
12-01-2001,11:00,5,R,ugm-3,17,R,ugm-3,25,R,ugm-3,48,R,ugm-3,5,R,ugm-3
12-01-2001,12:00,6,R,ugm-3,15,R,ugm-3,25,R,ugm-3,54,R,ugm-3,13,R,ugm-3
12-01-2001,13:00,8,R,ugm-3,11,R,ugm-3,23,R,ugm-3,50,R,ugm-3,8,R,ugm-3
12-01-2001,14:00,8,R,ugm-3,17,R,ugm-3,29,R,ugm-3,50,R,ugm-3,16,R,ugm-3
12-01-2001,15:00,8,R,ugm-3,13,R,ugm-3,25,R,ugm-3,56,R,ugm-3,13,R,ugm-3
12-01-2001,16:00,8,R,ugm-3,17,R,ugm-3,29,R,ugm-3,48,R,ugm-3,13,R,ugm-3
12-01-2001,17:00,11,R,ugm-3,31,R,ugm-3,48,R,ugm-3,30,R,ugm-3,13,R,ugm-3
12-01-2001,18:00,14,R,ugm-3,36,R,ugm-3,57,R,ugm-3,20,R,ugm-3,21,R,ugm-3
12-01-2001,19:00,9,R,ugm-3,29,R,ugm-3,42,R,ugm-3,22,R,ugm-3,37,R,ugm-3
12-01-2001,20:00,6,R,ugm-3,25,R,ugm-3,34,R,ugm-3,26,R,ugm-3,32,R,ugm-3
12-01-2001,21:00,5,R,ugm-3,27,R,ugm-3,34,R,ugm-3,34,R,ugm-3,21,R,ugm-3
12-01-2001,22:00,6,R,ugm-3,25,R,ugm-3,34,R,ugm-3,34,R,ugm-3,40,R,ugm-3
12-01-2001,23:00,9,R,ugm-3,27,R,ugm-3,40,R,ugm-3,38,R,ugm-3,37,R,ugm-3
12-01-2001,24:00,8,R,ugm-3,25,R,ugm-3,36,R,ugm-3,36,R,ugm-3,32,R,ugm-3
13-01-2001,01:00,6,R,ugm-3,17,R,ugm-3,27,R,ugm-3,44,R,ugm-3,24,R,ugm-3
13-01-2001,02:00,6,R,ugm-3,11,R,ugm-3,21,R,ugm-3,52,R,ugm-3,16,R,ugm-3
13-01-2001,03:00,6,R,ugm-3,6,R,ugm-3,15,R,ugm-3,64,R,ugm-3,8,R,ugm-3
13-01-2001,04:00,6,R,ugm-3,4,R,ugm-3,13,R,ugm-3,68,R,ugm-3,11,R,ugm-3
13-01-2001,05:00,6,R,ugm-3,6,R,ugm-3,15,R,ugm-3,66,R,ugm-3,8,R,ugm-3
13-01-2001,06:00,6,R,ugm-3,8,R,ugm-3,17,R,ugm-3,54,R,ugm-3,5,R,ugm-3
13-01-2001,07:00,6,R,ugm-3,17,R,ugm-3,27,R,ugm-3,44,R,ugm-3,5,R,ugm-3
13-01-2001,08:00,6,R,ugm-3,19,R,ugm-3,29,R,ugm-3,40,R,ugm-3,5,R,ugm-3
13-01-2001,09:00,8,R,ugm-3,17,R,ugm-3,29,R,ugm-3,36,R,ugm-3,5,R,ugm-3
13-01-2001,10:00,10,R,ugm-3,21,R,ugm-3,36,R,ugm-3,32,R,ugm-3,8,R,ugm-3
13-01-2001,11:00,13,R,ugm-3,21,R,ugm-3,40,R,ugm-3,38,R,ugm-3,8,R,ugm-3
13-01-2001,12:00,11,R,ugm-3,19,R,ugm-3,36,R,ugm-3,42,R,ugm-3,8,R,ugm-3
13-01-2001,13:00,11,R,ugm-3,19,R,ugm-3,36,R,ugm-3,44,R,ugm-3,5,R,ugm-3
13-01-2001,14:00,9,R,ugm-3,13,R,ugm-3,27,R,ugm-3,52,R,ugm-3,11,R,ugm-3
13-01-2001,15:00,11,R,ugm-3,21,R,ugm-3,38,R,ugm-3,42,R,ugm-3,13,R,ugm-3
13-01-2001,16:00,10,R,ugm-3,27,R,ugm-3,42,R,ugm-3,36,R,ugm-3,11,R,ugm-3
13-01-2001,17:00,26,R,ugm-3,44,R,ugm-3,84,R,ugm-3,14,R,ugm-3,13,R,ugm-3
13-01-2001,18:00,40,R,ugm-3,50,R,ugm-3,111,R,ugm-3,6,R,ugm-3,19,R,ugm-3
13-01-2001,19:00,56,R,ugm-3,50,R,ugm-3,136,R,ugm-3,6,R,ugm-3,19,R,ugm-3
13-01-2001,20:00,28,R,ugm-3,42,R,ugm-3,84,R,ugm-3,8,R,ugm-3,19,R,ugm-3
13-01-2001,21:00,19,R,ugm-3,40,R,ugm-3,69,R,ugm-3,10,R,ugm-3,21,R,ugm-3
13-01-2001,22:00,15,R,ugm-3,38,R,ugm-3,61,R,ugm-3,12,R,ugm-3,13,R,ugm-3
13-01-2001,23:00,8,R,ugm-3,21,R,ugm-3,32,R,ugm-3,36,R,ugm-3,13,R,ugm-3
13-01-2001,24:00,6,R,ugm-3,17,R,ugm-3,27,R,ugm-3,36,R,ugm-3,16,R,ugm-3
14-01-2001,01:00,6,R,ugm-3,13,R,ugm-3,23,R,ugm-3,40,R,ugm-3,11,R,ugm-3
14-01-2001,02:00,8,R,ugm-3,10,R,ugm-3,21,R,ugm-3,46,R,ugm-3,3,R,ugm-3
14-01-2001,03:00,6,R,ugm-3,11,R,ugm-3,21,R,ugm-3,44,R,ugm-3,8,R,ugm-3
14-01-2001,04:00,6,R,ugm-3,17,R,ugm-3,27,R,ugm-3,38,R,ugm-3,11,R,ugm-3
14-01-2001,05:00,6,R,ugm-3,15,R,ugm-3,25,R,ugm-3,40,R,ugm-3,8,R,ugm-3
14-01-2001,06:00,9,R,ugm-3,17,R,ugm-3,31,R,ugm-3,36,R,ugm-3,11,R,ugm-3
14-01-2001,07:00,16,R,ugm-3,31,R,ugm-3,55,R,ugm-3,18,R,ugm-3,8,R,ugm-3
14-01-2001,08:00,13,R,ugm-3,31,R,ugm-3,50,R,ugm-3,20,R,ugm-3,8,R,ugm-3
14-01-2001,09:00,10,R,ugm-3,21,R,ugm-3,36,R,ugm-3,32,R,ugm-3,5,R,ugm-3
14-01-2001,10:00,8,R,ugm-3,15,R,ugm-3,27,R,ugm-3,38,R,ugm-3,5,R,ugm-3
14-01-2001,11:00,6,R,ugm-3,13,R,ugm-3,23,R,ugm-3,56,R,ugm-3,5,R,ugm-3
14-01-2001,12:00,9,R,ugm-3,13,R,ugm-3,27,R,ugm-3,50,R,ugm-3,8,R,ugm-3
14-01-2001,13:00,13,R,ugm-3,19,R,ugm-3,38,R,ugm-3,34,R,ugm-3,13,R,ugm-3
14-01-2001,14:00,13,R,ugm-3,21,R,ugm-3,40,R,ugm-3,32,R,ugm-3,19,R,ugm-3
14-01-2001,15:00,14,R,ugm-3,27,R,ugm-3,48,R,ugm-3,26,R,ugm-3,21,R,ugm-3
14-01-2001,16:00,20,R,ugm-3,32,R,ugm-3,63,R,ugm-3,14,R,ugm-3,24,R,ugm-3
14-01-2001,17:00,29,R,ugm-3,48,R,ugm-3,92,R,ugm-3,4,R,ugm-3,37,R,ugm-3
14-01-2001,18:00,18,R,ugm-3,42,R,ugm-3,69,R,ugm-3,4,R,ugm-3,19,R,ugm-3
14-01-2001,19:00,35,R,ugm-3,48,R,ugm-3,101,R,ugm-3,4,R,ugm-3,19,R,ugm-3
14-01-2001,20:00,88,R,ugm-3,57,R,ugm-3,191,R,ugm-3,4,R,ugm-3,19,R,ugm-3
14-01-2001,21:00,26,R,ugm-3,46,R,ugm-3,86,R,ugm-3,8,R,ugm-3,11,R,ugm-3
14-01-2001,22:00,6,R,ugm-3,29,R,ugm-3,38,R,ugm-3,22,R,ugm-3,5,R,ugm-3
14-01-2001,23:00,6,R,ugm-3,21,R,ugm-3,31,R,ugm-3,30,R,ugm-3,5,R,ugm-3
14-01-2001,24:00,6,R,ugm-3,17,R,ugm-3,27,R,ugm-3,40,R,ugm-3,11,R,ugm-3
15-01-2001,01:00,9,R,ugm-3,4,R,ugm-3,17,R,ugm-3,52,R,ugm-3,11,R,ugm-3
15-01-2001,02:00,10,R,ugm-3,4,R,ugm-3,19,R,ugm-3,44,R,ugm-3,21,R,ugm-3
15-01-2001,03:00,8,R,ugm-3,6,R,ugm-3,17,R,ugm-3,46,R,ugm-3,29,R,ugm-3
15-01-2001,04:00,8,R,ugm-3,6,R,ugm-3,17,R,ugm-3,44,R,ugm-3,35,R,ugm-3
15-01-2001,05:00,9,R,ugm-3,8,R,ugm-3,21,R,ugm-3,44,R,ugm-3,43,R,ugm-3
15-01-2001,06:00,9,R,ugm-3,13,R,ugm-3,27,R,ugm-3,38,R,ugm-3,56,R,ugm-3
15-01-2001,07:00,10,R,ugm-3,15,R,ugm-3,31,R,ugm-3,40,R,ugm-3,40,R,ugm-3
15-01-2001,08:00,11,R,ugm-3,15,R,ugm-3,32,R,ugm-3,44,R,ugm-3,29,R,ugm-3
15-01-2001,09:00,13,R,ugm-3,11,R,ugm-3,31,R,ugm-3,40,R,ugm-3,8,R,ugm-3
15-01-2001,10:00,14,R,ugm-3,10,R,ugm-3,31,R,ugm-3,38,R,ugm-3,11,R,ugm-3
15-01-2001,11:00,16,R,ugm-3,11,R,ugm-3,36,R,ugm-3,30,R,ugm-3,19,R,ugm-3
15-01-2001,12:00,1,R,ugm-3,11,R,ugm-3,13,R,ugm-3,36,R,ugm-3,24,R,ugm-3
15-01-2001,13:00,8,R,ugm-3,15,R,ugm-3,27,R,ugm-3,34,R,ugm-3,27,R,ugm-3
15-01-2001,14:00,10,R,ugm-3,11,R,ugm-3,27,R,ugm-3,44,R,ugm-3,19,R,ugm-3